N5PA-2 Weather Reports


time (UTC)temp
C
wind
direction
speed
KPH
gust
KPH
rain 1hr
cm
rain 24hr
cm
rain mn
cm
humidity
%
barometer
mb
20260502223006 20 18 1.6 6.4 0.00 1.37 0.23 47 1016.0
20260502222505 21 3 1.6 4.8 0.00 1.42 0.23 49 1015.9
20260502222005 21 340 1.6 4.8 0.00 1.50 0.23 48 1015.8
20260502221505 21 293 1.6 4.8 0.00 1.60 0.23 44 1015.8
20260502221005 21 339 1.6 4.8 0.00 1.63 0.23 44 1015.8
20260502220505 21 5 1.6 4.8 0.00 1.68 0.23 45 1015.8
20260502220005 21 356 1.6 6.4 0.00 1.73 0.23 46 1015.7
20260502215005 21 42 3.2 8.0 0.00 1.78 0.23 43 1015.6
20260502214504 21 34 3.2 8.0 0.00 1.80 0.23 41 1015.6
20260502214005 22 15 1.6 6.4 0.00 1.85 0.23 46 1015.7
20260502213505 22 324 1.6 4.8 0.00 1.91 0.23 44 1015.7
20260502213005 22 309 1.6 8.0 0.00 1.93 0.23 41 1015.7
20260502212005 22 342 1.6 8.0 0.00 2.01 0.23 41 1015.7
20260502211005 22 336 1.6 6.4 0.00 2.08 0.23 43 1015.8
20260502210505 22 34 1.6 4.8 0.00 2.13 0.23 45 1015.8
20260502210005 22 58 3.2 8.0 0.00 2.18 0.23 44 1015.8
20260502205505 22 51 1.6 8.0 0.00 2.24 0.23 45 1016.0
20260502205005 22 339 1.6 6.4 0.00 2.31 0.23 45 1016.1
20260502204505 22 293 1.6 6.4 0.00 2.34 0.23 44 1016.0
20260502204004 22 296 1.6 4.8 0.00 2.36 0.23 45 1016.1
20260502203504 22 63 1.6 11.3 0.00 2.39 0.23 47 1016.2
20260502202505 22 339 1.6 4.8 0.00 2.44 0.23 45 1016.3
20260502202004 22 36 1.6 6.4 0.00 2.46 0.23 45 1016.4
20260502201505 22 21 1.6 6.4 0.00 2.49 0.23 48 1016.3
20260502200504 22 17 1.6 4.8 0.00 2.49 0.23 44 1016.4
20260502200005 22 50 3.2 4.8 0.00 2.51 0.23 44 1016.5
20260502195005 21 29 3.2 6.4 0.00 2.51 0.23 42 1016.6
20260502194505 21 355 3.2 6.4 0.00 2.51 0.23 43 1016.7
20260502193504 21 326 3.2 12.9 0.00 2.54 0.23 47 1016.7
20260502193005 21 333 3.2 12.9 0.00 2.54 0.23 45 1016.8
20260502192505 21 33 3.2 8.0 0.00 2.54 0.23 44 1016.7
20260502192005 21 47 3.2 8.0 0.00 2.54 0.23 43 1016.7
20260502191505 21 40 1.6 4.8 0.00 2.57 0.23 47 1016.7
20260502191005 21 22 1.6 4.8 0.00 2.57 0.23 45 1016.9
20260502190505 21 42 3.2 9.7 0.00 2.57 0.23 49 1016.8
20260502190005 21 53 3.2 11.3 0.00 2.59 0.23 45 1016.8
20260502185004 21 43 3.2 11.3 0.00 2.59 0.23 50 1016.8
20260502184504 21 29 3.2 11.3 0.00 2.62 0.23 44 1016.9
20260502184005 21 28 3.2 11.3 0.00 2.64 0.23 45 1017.0
20260502183505 21 37 1.6 8.0 0.00 2.64 0.23 48 1016.9
20260502183005 21 355 3.2 11.3 0.00 2.67 0.23 46 1017.1
20260502182504 21 342 3.2 11.3 0.00 2.67 0.23 49 1017.1
20260502182004 21 8 3.2 12.9 0.00 2.69 0.23 46 1017.2
20260502181504 20 21 3.2 12.9 0.00 2.72 0.23 46 1017.2
20260502181005 20 22 3.2 9.7 0.00 2.72 0.23 46 1017.2
20260502164004 18 50 3.2 12.9 0.00 2.90 0.23 56 1017.9
20260502163505 17 38 3.2 8.0 0.00 2.92 0.23 55 1017.9
20260502162505 17 30 3.2 12.9 0.00 2.95 0.23 60 1017.7
20260502162004 17 11 3.2 8.0 0.00 2.97 0.23 58 1017.7
20260502161504 17 22 3.2 6.4 0.00 2.97 0.23 62 1017.7
20260502160504 17 17 3.2 8.0 0.00 3.00 0.23 68 1017.8
20260502152004 15 343 1.6 6.4 0.00 3.15 0.23 79 1017.4
20260502151504 15 342 1.6 4.8 0.00 3.17 0.23 81 1017.4
20260502151004 15 350 1.6 4.8 0.00 3.17 0.23 83 1017.3
20260502150504 15 29 1.6 8.0 0.00 3.17 0.23 82 1017.2
20260502130505 12 317 0.0 1.6 0.00 3.33 0.23 82 1015.8
20260502123505 12 237 0.0 1.6 0.00 3.33 0.23 82 1015.6
20260502123005 12 227 0.0 1.6 0.00 3.33 0.23 82 1015.5
20260502122505 12 225 0.0 1.6 0.00 3.33 0.23 82 1015.3
20260502122005 12 0 0.0 0.0 0.00 3.33 0.23 82 1015.3
20260502121005 12 0 0.0 0.0 0.00 3.33 0.23 82 1015.2
20260502120505 12 0 0.0 0.0 0.00 3.33 0.23 82 1015.0
20260502115505 11 0 0.0 0.0 0.00 3.33 0.23 82 1014.9
20260502115004 11 0 0.0 0.0 0.00 3.33 0.23 82 1014.8
20260502114505 11 0 0.0 0.0 0.00 3.33 0.23 82 1014.6
20260502114005 11 0 0.0 0.0 0.00 3.33 0.23 82 1014.5
20260502113505 11 0 0.0 0.0 0.00 3.33 0.23 82 1014.5
20260502113004 11 52 0.0 1.6 0.00 3.33 0.23 82 1014.4
20260502112505 11 52 0.0 1.6 0.00 3.33 0.23 82 1014.3
20260502112005 11 62 0.0 1.6 0.00 3.33 0.23 82 1014.3
20260502111004 11 0 0.0 0.0 0.00 3.33 0.23 82 1014.1
20260502110505 11 0 0.0 0.0 0.00 3.33 0.23 82 1014.1
20260502105005 11 62 0.0 3.2 0.00 3.33 0.23 82 1014.1
20260502104505 11 62 0.0 3.2 0.00 3.33 0.23 82 1014.0
20260502104005 11 0 0.0 0.0 0.00 3.33 0.23 82 1014.0
20260502103504 11 0 0.0 0.0 0.00 3.33 0.23 82 1014.0
20260502103004 11 5 0.0 1.6 0.00 3.33 0.23 82 1013.9
20260502102505 11 11 0.0 1.6 0.00 3.33 0.23 82 1013.9
20260502102005 11 16 0.0 1.6 0.00 3.33 0.23 82 1013.9
20260502101505 11 0 0.0 0.0 0.00 3.33 0.23 82 1013.9
20260502101005 11 0 0.0 0.0 0.00 3.33 0.23 82 1013.8
20260502091505 11 0 0.0 0.0 0.00 3.35 0.23 82 1013.8
20260502071505 11 0 0.0 0.0 0.00 3.35 0.23 83 1013.9
20260502071005 11 0 0.0 0.0 0.03 3.35 0.23 83 1013.7
20260502070504 11 0 0.0 0.0 0.03 3.35 0.23 83 1013.9
20260502070005 11 0 0.0 0.0 0.03 3.35 0.23 83 1014.0
20260502065505 11 0 0.0 0.0 0.05 3.35 0.23 83 1013.9
20260502065005 11 38 0.0 1.6 0.05 3.35 0.23 83 1014.1
20260502064505 11 38 0.0 1.6 0.10 3.35 0.23 83 1014.1
20260502064005 11 34 0.0 3.2 0.10 3.35 0.23 83 1014.0
20260502063505 11 33 0.0 3.2 0.15 3.35 0.23 83 1013.7
20260502063005 11 49 0.0 3.2 0.15 3.38 0.23 83 1013.9
20260502062505 11 43 0.0 3.2 0.18 3.38 0.23 83 1014.0
20260502062005 11 21 0.0 1.6 0.18 3.38 0.23 83 1014.2
20260502060505 11 38 0.0 1.6 0.18 3.35 0.20 83 1014.4
20260502060005 11 63 0.0 3.2 0.20 3.35 0.20 83 1014.2
20260502055504 11 67 0.0 3.2 0.18 3.33 0.18 83 1014.1
20260502054504 11 10 0.0 1.6 0.15 3.30 0.13 83 1014.6
20260502054004 11 11 0.0 1.6 0.13 3.28 0.10 83 1014.5
20260502053505 11 0 0.0 0.0 0.10 3.25 0.08 83 1014.6
20260502053005 11 10 0.0 1.6 0.08 3.23 0.05 83 1014.5
20260502052504 11 11 0.0 1.6 0.08 3.23 0.05 83 1014.4
20260502051504 11 27 0.0 1.6 0.08 3.20 0.03 83 1014.4
20260502051004 11 46 0.0 4.8 0.08 3.20 0.03 83 1014.4
20260502050504 11 45 0.0 4.8 0.10 3.20 0.03 83 1014.3
20260502050006 11 19 0.0 3.2 0.08 3.17 0.00 83 1014.4
20260502045505 11 15 0.0 1.6 0.08 3.17 3.17 83 1014.4
20260502044005 11 0 0.0 0.0 0.10 3.15 3.15 83 1014.3
20260502043505 11 0 0.0 0.0 0.10 3.15 3.15 83 1014.1
20260502043005 11 0 0.0 0.0 0.10 3.15 3.15 83 1014.0
20260502042505 11 0 0.0 0.0 0.10 3.15 3.15 83 1014.2
20260502042004 11 337 0.0 1.6 0.08 3.12 3.12 83 1014.3
20260502041504 11 337 0.0 1.6 0.08 3.15 3.12 83 1014.5
20260502035504 11 0 0.0 0.0 0.03 3.10 3.07 83 1014.8
20260502035004 11 0 0.0 0.0 0.03 3.10 3.07 83 1014.9
20260502034504 11 0 0.0 0.0 0.00 3.07 3.05 83 1014.9
20260502034004 11 4 0.0 1.6 0.00 3.07 3.05 83 1014.7
20260502033504 11 8 0.0 1.6 0.00 3.07 3.05 83 1014.5
20260502033004 11 82 0.0 1.6 0.00 3.07 3.05 83 1014.4
20260502032504 11 82 0.0 1.6 0.00 3.07 3.05 83 1014.5
20260502032004 11 83 0.0 1.6 0.00 3.07 3.05 83 1014.4
20260502031505 10 85 0.0 3.2 0.03 3.07 3.05 83 1014.3
20260502031005 10 82 1.6 4.8 0.03 3.07 3.05 83 1014.3
20260502030505 10 80 0.0 4.8 0.03 3.07 3.05 83 1014.1
20260502025505 10 84 0.0 3.2 0.03 3.07 3.05 83 1014.1
20260502025005 10 80 0.0 3.2 0.03 3.07 3.05 83 1014.1
20260502024505 10 79 0.0 3.2 0.03 3.07 3.05 83 1014.0
20260502024005 10 57 0.0 3.2 0.03 3.07 3.05 83 1014.1
20260502023505 10 55 0.0 3.2 0.03 3.07 3.05 83 1014.0
20260502022506 10 72 0.0 3.2 0.03 3.07 3.05 83 1013.6
20260502022005 10 52 0.0 3.2 0.03 3.07 3.05 83 1013.5
20260502021505 10 352 0.0 3.2 0.00 3.05 3.02 83 1013.1
20260502021005 10 343 0.0 3.2 0.00 3.05 3.02 83 1013.1
20260502020505 10 0 0.0 0.0 0.00 3.05 3.02 83 1013.2
20260502020005 10 0 0.0 0.0 0.00 3.05 3.02 83 1013.4
20260502015505 10 237 0.0 1.6 0.00 3.05 3.02 83 1013.3
20260502015005 10 283 0.0 1.6 0.00 3.05 3.02 83 1013.2
20260502014505 10 343 0.0 3.2 0.03 3.05 3.02 83 1013.2
20260502014005 10 344 1.6 3.2 0.03 3.07 3.02 83 1013.2
20260502013505 10 347 1.6 4.8 0.03 3.07 3.02 83 1013.3
20260502013005 10 31 1.6 6.4 0.08 3.07 3.02 83 1013.2
20260502011504 10 35 1.6 4.8 0.20 3.12 3.02 83 1013.0
20260502011005 10 48 1.6 4.8 0.23 3.12 3.02 83 1012.9
20260502010505 10 43 1.6 3.2 0.25 3.12 3.02 83 1012.8
20260502010005 10 28 1.6 3.2 0.28 3.12 3.02 83 1012.6
20260502005505 10 31 1.6 3.2 0.30 3.12 3.02 83 1012.4
20260502005005 11 39 1.6 3.2 0.36 3.12 3.02 83 1012.4
20260502004505 11 29 0.0 3.2 0.38 3.10 3.00 83 1012.6
20260502004005 11 16 0.0 1.6 0.43 3.10 3.00 83 1013.0
20260502003504 11 25 0.0 3.2 0.46 3.07 2.97 83 1013.2
20260502003005 11 30 0.0 3.2 0.46 3.07 2.95 83 1013.2
20260502002505 11 20 0.0 3.2 0.46 3.02 2.90 83 1013.3
20260502002005 11 21 0.0 3.2 0.46 2.97 2.84 83 1013.3
20260502001505 11 41 0.0 1.6 0.46 2.95 2.82 83 1013.4
20260502000504 11 0 0.0 0.0 0.46 2.90 2.77 83 1013.2
20260501235505 11 0 0.0 0.0 0.46 2.87 2.69 83 1013.3
20260501234504 11 22 0.0 1.6 0.48 2.79 2.62 83 1013.2
20260501232505 11 84 0.0 1.6 0.53 2.64 2.44 83 1012.4
20260501232005 11 72 1.6 6.4 0.58 2.62 2.39 83 1012.1
20260501231505 11 64 3.2 6.4 0.58 2.67 2.36 83 1011.6
20260501231004 11 62 3.2 11.3 0.58 2.69 2.34 83 1011.1
20260501230504 11 52 3.2 11.3 0.61 2.69 2.31 83 1011.1
20260501230004 11 43 3.2 6.4 0.61 2.67 2.26 83 1010.9
20260501225505 11 57 1.6 6.4 0.61 2.67 2.24 83 1010.8
20260501225005 11 69 3.2 11.3 0.58 2.67 2.18 83 1010.8
20260501224505 11 71 4.8 11.3 0.58 2.62 2.13 83 1010.4
20260501224005 11 69 3.2 12.9 0.61 2.59 2.11 83 1010.3